Location: Bosdarros
(43.2167°N, 0.3667°W)
Time: 15:59:16
(UTC+00:00)

COSMOS 2455 - Pass Details

Date: 22 April 2021
Orbit: 902 x 907 km, 67.1° (Epoch: 12 May)

Event Time Altitude Azimuth Distance (km) Brightness Sun altitude
Rises 19:39:23 0° 164° (SSE) 3,514 5.5 -8.7°
Reaches altitude 10° 19:42:36 10° 147° (SSE) 2,579 4.7 -9.2°
Maximum altitude 19:46:37 19° 104° (ESE) 2,019 4.1 -9.9°
Drops below altitude 10° 19:50:39 10° 61° (ENE) 2,593 4.9 -10.5°
Sets 19:53:53 0° 45° (NE) 3,540 5.8 -11.0°
